This demonstration page uses our WeatherBlox Daily Observations layout. Learn more.

Left ArrowRight Arrow

Hourly Observations for May 23, 2022

Temp ( °F °C ) Dew Point ( °F °C ) Humidity (%) Winds ( mph kmh ) Pressure ( in mb ) Visibility ( mi km ) Precip ( " mm )
12:51 am 00:51 Clear 72 22.2 27 -2.8 19 19 NW 10 17 29.78 1009 10 16 0.00 0.00
1:51 am 01:51 Clear 71 21.7 27 -2.8 19 19 NNW 10 17 29.77 1008 10 16 0.00 0.00
2:51 am 02:51 Clear 69 20.6 26 -3.3 20 20 NW 12 19 29.78 1008 10 16 0.00 0.00
3:51 am 03:51 Clear 67 19.4 27 -2.8 22 22 NW 9 15 29.78 1008 10 16 0.00 0.00
4:51 am 04:51 Clear 64 17.8 27 -2.8 25 25 N 6 9 29.78 1009 10 16 0.00 0.00
5:51 am 05:51 Sunny 60 15.6 25 -3.9 26 26 SSE 6 9 29.80 1009 10 16 0.00 0.00
6:51 am 06:51 Sunny 66 18.9 26 -3.3 22 22 SSE 5 7 29.81 1010 10 16 0.00 0.00
7:51 am 07:51 Sunny 72 22.2 28 -2.2 19 19 SE 6 9 29.80 1009 10 16 0.00 0.00
8:51 am 08:51 Sunny 77 25 28 -2.2 16 16 Calm 29.79 1009 10 16 0.00 0.00
9:51 am 09:51 Sunny 82 27.8 33 0.6 17 17 VRB 5 7 29.76 1008 10 16 0.00 0.00
10:51 am 10:51 Sunny 86 30 32 0 14 14 NE 7 11 29.74 1007 10 16 0.00 0.00
11:51 am 11:51 Sunny 85 29.4 30 -1.1 14 14 VRB 3 6 29.72 1006 10 16 0.00 0.00
12:51 pm 12:51 Sunny 89 31.7 28 -2.2 11 11 VRB 5 7 29.67 1005 10 16 0.00 0.00
1:51 pm 13:51 Sunny 89 31.7 28 -2.2 11 11 WNW 12 19 29.62 1003 10 16 0.00 0.00
2:51 pm 14:51 Sunny 92 33.3 29 -1.7 10 10 W 15 24 29.59 1002 10 16 0.00 0.00
3:51 pm 15:51 Sunny 92 33.3 25 -3.9 9 9 WNW 24 39 29.57 1001 10 16 0.00 0.00
4:51 pm 16:51 Sunny 90 32.2 23 -5 9 9 NW 26 43 29.58 1002 10 16 0.00 0.00
5:51 pm 17:51 Sunny 87 30.6 20 -6.7 8 8 WNW 24 39 29.59 1002 10 16 0.00 0.00
6:51 pm 18:51 Sunny 83 28.3 19 -7.2 9 9 WNW 22 35 29.61 1003 10 16 0.00 0.00
7:51 pm 19:51 Clear 79 26.1 19 -7.2 10 10 NW 16 26 29.63 1003 10 16 0.00 0.00
8:51 pm 20:51 Clear 77 25 23 -5 13 13 NW 12 19 29.65 1004 10 16 0.00 0.00
9:51 pm 21:51 Clear 74 23.3 24 -4.4 15 15 W 5 7 29.67 1005 10 16 0.00 0.00
10:51 pm 22:51 Clear 69 20.6 23 -5 17 17 WNW 5 7 29.66 1004 10 16 0.00 0.00
11:51 pm 23:51 Clear 68 20 23 -5 18 18 NW 5 7 29.66 1004 10 16 0.00 0.00

Powered by AerisWeather